Tracking 35274 objects as of 12-Sep-2026
HD Live streaming from Space Station
objects crossing your sky now

STARLINK-2011


STARLINK-2011 is no longer on orbit
STARLINK-2011 is classified as:


NORAD ID: 47350
Int'l Code: 2021-005B
Launch date: January 20, 2021
Source: United States (US)
Launch site: AIR FORCE EASTERN TEST RANGE (AFETR)
Decay date: 2024-05-20
Your satellite tracking list
Your tracking list is empty




NASA's NSSDC Master Catalog

Two Line Element Set (TLE):
1 47350U 21005B   24141.39926420  .21594752  12204-4  34286-2 0  9997
2 47350  53.0417 105.1392 0002662 320.2832 174.1162 16.33025211184939
Source of the keplerian elements: AFSPC